Year,Month,Day,Hour,Minute,Value (Times are PST for insolation in W/m^2)
2009,04,29,00,00,0.00
2009,04,29,00,01,0.00
2009,04,29,00,02,0.00
2009,04,29,00,03,0.00
2009,04,29,00,04,0.00
2009,04,29,00,05,0.00
2009,04,29,00,06,0.00
2009,04,29,00,07,0.00
2009,04,29,00,08,0.00
2009,04,29,00,09,0.00
2009,04,29,00,10,0.00
2009,04,29,00,11,0.00
2009,04,29,00,12,0.00
2009,04,29,00,13,0.00
2009,04,29,00,14,0.00
2009,04,29,00,15,0.00
2009,04,29,00,16,0.00
2009,04,29,00,17,0.00
2009,04,29,00,18,0.00
2009,04,29,00,19,0.00
2009,04,29,00,20,0.00
2009,04,29,00,21,0.00
2009,04,29,00,22,0.00
2009,04,29,00,23,0.00
2009,04,29,00,24,0.00
2009,04,29,00,25,0.00
2009,04,29,00,26,0.00
2009,04,29,00,27,0.00
2009,04,29,00,28,0.00
2009,04,29,00,29,0.00
2009,04,29,00,30,0.00
2009,04,29,00,31,0.00
2009,04,29,00,32,0.00
2009,04,29,00,33,0.00
2009,04,29,00,34,0.00
2009,04,29,00,35,0.00
2009,04,29,00,36,0.00
2009,04,29,00,37,0.00
2009,04,29,00,38,0.00
2009,04,29,00,39,0.00
2009,04,29,00,40,0.00
2009,04,29,00,41,0.00
2009,04,29,00,42,0.00
2009,04,29,00,43,0.00
2009,04,29,00,44,0.00
2009,04,29,00,45,0.00
2009,04,29,00,46,0.00
2009,04,29,00,47,0.00
2009,04,29,00,48,0.00
2009,04,29,00,49,0.00
2009,04,29,00,50,0.00
2009,04,29,00,51,0.00
2009,04,29,00,52,0.00
2009,04,29,00,53,0.00
2009,04,29,00,54,0.00
2009,04,29,00,55,0.00
2009,04,29,00,56,0.00
2009,04,29,00,57,0.00
2009,04,29,00,58,0.00
2009,04,29,00,59,0.00
2009,04,29,01,00,0.00
2009,04,29,01,01,0.00
2009,04,29,01,02,0.00
2009,04,29,01,03,0.00
2009,04,29,01,04,0.00
2009,04,29,01,05,0.00
2009,04,29,01,06,0.00
2009,04,29,01,07,0.00
2009,04,29,01,08,0.00
2009,04,29,01,09,0.00
2009,04,29,01,10,0.00
2009,04,29,01,11,0.00
2009,04,29,01,12,0.00
2009,04,29,01,13,0.00
2009,04,29,01,14,0.00
2009,04,29,01,15,0.00
2009,04,29,01,16,0.00
2009,04,29,01,17,0.00
2009,04,29,01,18,0.00
2009,04,29,01,19,0.00
2009,04,29,01,20,0.00
2009,04,29,01,21,0.00
2009,04,29,01,22,0.00
2009,04,29,01,23,0.00
2009,04,29,01,24,0.00
2009,04,29,01,25,0.00
2009,04,29,01,26,0.00
2009,04,29,01,27,0.00
2009,04,29,01,28,0.00
2009,04,29,01,29,0.00
2009,04,29,01,30,0.00
2009,04,29,01,31,0.00
2009,04,29,01,32,0.00
2009,04,29,01,33,0.00
2009,04,29,01,34,0.00
2009,04,29,01,35,0.00
2009,04,29,01,36,0.00
2009,04,29,01,37,0.00
2009,04,29,01,38,0.00
2009,04,29,01,39,0.00
2009,04,29,01,40,0.00
2009,04,29,01,41,0.00
2009,04,29,01,42,0.00
2009,04,29,01,43,0.00
2009,04,29,01,44,0.00
2009,04,29,01,45,0.00
2009,04,29,01,46,0.00
2009,04,29,01,47,0.00
2009,04,29,01,48,0.00
2009,04,29,01,49,0.00
2009,04,29,01,50,0.00
2009,04,29,01,51,0.00
2009,04,29,01,52,0.00
2009,04,29,01,53,0.00
2009,04,29,01,54,0.00
2009,04,29,01,55,0.00
2009,04,29,01,56,0.00
2009,04,29,01,57,0.00
2009,04,29,01,58,0.00
2009,04,29,01,59,0.00
2009,04,29,02,00,0.00
2009,04,29,02,01,0.00
2009,04,29,02,02,0.00
2009,04,29,02,03,0.00
2009,04,29,02,04,0.00
2009,04,29,02,05,0.00
2009,04,29,02,06,0.00
2009,04,29,02,07,0.00
2009,04,29,02,08,0.00
2009,04,29,02,09,0.00
2009,04,29,02,10,0.00
2009,04,29,02,11,0.00
2009,04,29,02,12,0.00
2009,04,29,02,13,0.00
2009,04,29,02,14,0.00
2009,04,29,02,15,0.00
2009,04,29,02,16,0.00
2009,04,29,02,17,0.00
2009,04,29,02,18,0.00
2009,04,29,02,19,0.00
2009,04,29,02,20,0.00
2009,04,29,02,21,0.00
2009,04,29,02,22,0.00
2009,04,29,02,23,0.00
2009,04,29,02,24,0.00
2009,04,29,02,25,0.00
2009,04,29,02,26,0.00
2009,04,29,02,27,0.00
2009,04,29,02,28,0.00
2009,04,29,02,29,0.00
2009,04,29,02,30,0.00
2009,04,29,02,31,0.00
2009,04,29,02,32,0.00
2009,04,29,02,33,0.00
2009,04,29,02,34,0.00
2009,04,29,02,35,0.00
2009,04,29,02,36,0.00
2009,04,29,02,37,0.00
2009,04,29,02,38,0.00
2009,04,29,02,39,0.00
2009,04,29,02,40,0.00
2009,04,29,02,41,0.00
2009,04,29,02,42,0.00
2009,04,29,02,43,0.00
2009,04,29,02,44,0.00
2009,04,29,02,45,0.00
2009,04,29,02,46,0.00
2009,04,29,02,47,0.00
2009,04,29,02,48,0.00
2009,04,29,02,49,0.00
2009,04,29,02,50,0.00
2009,04,29,02,51,0.00
2009,04,29,02,52,0.00
2009,04,29,02,53,0.00
2009,04,29,02,54,0.00
2009,04,29,02,55,0.00
2009,04,29,02,56,0.00
2009,04,29,02,57,0.00
2009,04,29,02,58,0.00
2009,04,29,02,59,0.00
2009,04,29,03,00,0.00
2009,04,29,03,01,0.00
2009,04,29,03,02,0.00
2009,04,29,03,03,0.00
2009,04,29,03,04,0.00
2009,04,29,03,05,0.00
2009,04,29,03,06,0.00
2009,04,29,03,07,0.00
2009,04,29,03,08,0.00
2009,04,29,03,09,0.00
2009,04,29,03,10,0.00
2009,04,29,03,11,0.00
2009,04,29,03,12,0.00
2009,04,29,03,13,0.00
2009,04,29,03,14,0.00
2009,04,29,03,15,0.00
2009,04,29,03,16,0.00
2009,04,29,03,17,0.00
2009,04,29,03,18,0.00
2009,04,29,03,19,0.00
2009,04,29,03,20,0.00
2009,04,29,03,21,0.00
2009,04,29,03,22,0.00
2009,04,29,03,23,0.00
2009,04,29,03,24,0.00
2009,04,29,03,25,0.00
2009,04,29,03,26,0.00
2009,04,29,03,27,0.00
2009,04,29,03,28,0.00
2009,04,29,03,29,0.00
2009,04,29,03,30,0.00
2009,04,29,03,31,0.00
2009,04,29,03,32,0.00
2009,04,29,03,33,0.00
2009,04,29,03,34,0.00
2009,04,29,03,35,0.00
2009,04,29,03,36,0.00
2009,04,29,03,37,0.00
2009,04,29,03,38,0.00
2009,04,29,03,39,0.00
2009,04,29,03,40,0.00
2009,04,29,03,41,0.00
2009,04,29,03,42,0.00
2009,04,29,03,43,0.00
2009,04,29,03,44,0.00
2009,04,29,03,45,0.00
2009,04,29,03,46,0.00
2009,04,29,03,47,0.00
2009,04,29,03,48,0.00
2009,04,29,03,49,0.00
2009,04,29,03,50,0.00
2009,04,29,03,51,0.00
2009,04,29,03,52,0.00
2009,04,29,03,53,0.00
2009,04,29,03,54,0.00
2009,04,29,03,55,0.00
2009,04,29,03,56,0.00
2009,04,29,03,57,0.00
2009,04,29,03,58,0.00
2009,04,29,03,59,0.00
2009,04,29,04,00,0.00
2009,04,29,04,01,0.00
2009,04,29,04,02,0.00
2009,04,29,04,03,0.00
2009,04,29,04,04,0.00
2009,04,29,04,05,0.00
2009,04,29,04,06,0.00
2009,04,29,04,07,0.00
2009,04,29,04,08,0.00
2009,04,29,04,09,0.00
2009,04,29,04,10,0.00
2009,04,29,04,11,0.00
2009,04,29,04,12,0.00
2009,04,29,04,13,0.00
2009,04,29,04,14,0.00
2009,04,29,04,15,0.00
2009,04,29,04,16,0.00
2009,04,29,04,17,0.00
2009,04,29,04,18,0.00
2009,04,29,04,19,0.00
2009,04,29,04,20,0.00
2009,04,29,04,21,0.00
2009,04,29,04,22,0.00
2009,04,29,04,23,0.00
2009,04,29,04,24,0.00
2009,04,29,04,25,0.00
2009,04,29,04,26,0.00
2009,04,29,04,27,0.00
2009,04,29,04,28,0.00
2009,04,29,04,29,0.00
2009,04,29,04,30,0.00
2009,04,29,04,31,0.00
2009,04,29,04,32,0.00
2009,04,29,04,33,0.00
2009,04,29,04,34,0.00
2009,04,29,04,35,0.00
2009,04,29,04,36,0.00
2009,04,29,04,37,0.00
2009,04,29,04,38,0.00
2009,04,29,04,39,0.00
2009,04,29,04,40,0.00
2009,04,29,04,41,0.00
2009,04,29,04,42,0.00
2009,04,29,04,43,0.00
2009,04,29,04,44,0.00
2009,04,29,04,45,0.00
2009,04,29,04,46,0.00
2009,04,29,04,47,0.00
2009,04,29,04,48,0.00
2009,04,29,04,49,0.00
2009,04,29,04,50,0.00
2009,04,29,04,51,0.00
2009,04,29,04,52,0.00
2009,04,29,04,53,0.00
2009,04,29,04,54,0.00
2009,04,29,04,55,0.00
2009,04,29,04,56,0.00
2009,04,29,04,57,0.00
2009,04,29,04,58,0.00
2009,04,29,04,59,0.00
2009,04,29,05,00,0.00
2009,04,29,05,01,0.00
2009,04,29,05,02,0.00
2009,04,29,05,03,0.00
2009,04,29,05,04,0.00
2009,04,29,05,05,0.00
2009,04,29,05,06,0.00
2009,04,29,05,07,0.00
2009,04,29,05,08,0.00
2009,04,29,05,09,0.00
2009,04,29,05,10,0.00
2009,04,29,05,11,0.00
2009,04,29,05,12,0.00
2009,04,29,05,13,0.00
2009,04,29,05,14,0.00
2009,04,29,05,15,0.00
2009,04,29,05,16,0.00
2009,04,29,05,17,0.00
2009,04,29,05,18,0.00
2009,04,29,05,19,0.00
2009,04,29,05,20,0.00
2009,04,29,05,21,0.00
2009,04,29,05,22,0.00
2009,04,29,05,23,0.00
2009,04,29,05,24,0.00
2009,04,29,05,25,0.00
2009,04,29,05,26,0.00
2009,04,29,05,27,0.00
2009,04,29,05,28,0.00
2009,04,29,05,29,0.00
2009,04,29,05,30,0.00
2009,04,29,05,31,0.00
2009,04,29,05,32,0.00
2009,04,29,05,33,0.00
2009,04,29,05,34,0.00
2009,04,29,05,35,0.00
2009,04,29,05,36,0.00
2009,04,29,05,37,0.00
2009,04,29,05,38,0.00
2009,04,29,05,39,0.00
2009,04,29,05,40,0.00
2009,04,29,05,41,0.00
2009,04,29,05,42,0.00
2009,04,29,05,43,0.00
2009,04,29,05,44,0.00
2009,04,29,05,45,0.00
2009,04,29,05,46,0.00
2009,04,29,05,47,0.00
2009,04,29,05,48,0.00
2009,04,29,05,49,0.00
2009,04,29,05,50,0.00
2009,04,29,05,51,0.00
2009,04,29,05,52,0.00
2009,04,29,05,53,0.00
2009,04,29,05,54,0.00
2009,04,29,05,55,0.00
2009,04,29,05,56,0.00
2009,04,29,05,57,0.00
2009,04,29,05,58,0.00
2009,04,29,05,59,4.50
2009,04,29,06,00,5.00
2009,04,29,06,01,5.00
2009,04,29,06,02,5.80
2009,04,29,06,03,7.00
2009,04,29,06,04,8.60
2009,04,29,06,05,9.00
2009,04,29,06,06,9.00
2009,04,29,06,07,9.90
2009,04,29,06,08,12.90
2009,04,29,06,09,14.00
2009,04,29,06,10,15.60
2009,04,29,06,11,16.00
2009,04,29,06,12,17.90
2009,04,29,06,13,18.00
2009,04,29,06,14,18.00
2009,04,29,06,15,18.70
2009,04,29,06,16,19.00
2009,04,29,06,17,20.70
2009,04,29,06,18,21.00
2009,04,29,06,19,21.00
2009,04,29,06,20,21.00
2009,04,29,06,21,23.80
2009,04,29,06,22,27.70
2009,04,29,06,23,30.00
2009,04,29,06,24,32.20
2009,04,29,06,25,33.00
2009,04,29,06,26,33.00
2009,04,29,06,27,33.00
2009,04,29,06,28,32.10
2009,04,29,06,29,32.00
2009,04,29,06,30,32.00
2009,04,29,06,31,32.40
2009,04,29,06,32,34.10
2009,04,29,06,33,35.00
2009,04,29,06,34,38.60
2009,04,29,06,35,40.10
2009,04,29,06,36,43.00
2009,04,29,06,37,46.00
2009,04,29,06,38,49.30
2009,04,29,06,39,55.20
2009,04,29,06,40,57.80
2009,04,29,06,41,60.20
2009,04,29,06,42,62.30
2009,04,29,06,43,63.90
2009,04,29,06,44,66.10
2009,04,29,06,45,68.60
2009,04,29,06,46,63.30
2009,04,29,06,47,58.00
2009,04,29,06,48,56.00
2009,04,29,06,49,60.30
2009,04,29,06,50,74.80
2009,04,29,06,51,86.90
2009,04,29,06,52,90.50
2009,04,29,06,53,95.00
2009,04,29,06,54,96.50
2009,04,29,06,55,101.10
2009,04,29,06,56,102.00
2009,04,29,06,57,102.00
2009,04,29,06,58,88.00
2009,04,29,06,59,96.60
2009,04,29,07,00,111.30
2009,04,29,07,01,118.50
2009,04,29,07,02,116.00
2009,04,29,07,03,116.00
2009,04,29,07,04,115.70
2009,04,29,07,05,110.50
2009,04,29,07,06,114.90
2009,04,29,07,07,110.80
2009,04,29,07,08,100.80
2009,04,29,07,09,97.00
2009,04,29,07,10,97.70
2009,04,29,07,11,114.00
2009,04,29,07,12,122.40
2009,04,29,07,13,134.00
2009,04,29,07,14,134.00
2009,04,29,07,15,165.50
2009,04,29,07,16,175.40
2009,04,29,07,17,176.00
2009,04,29,07,18,168.80
2009,04,29,07,19,164.20
2009,04,29,07,20,168.00
2009,04,29,07,21,181.70
2009,04,29,07,22,194.40
2009,04,29,07,23,204.70
2009,04,29,07,24,204.50
2009,04,29,07,25,212.00
2009,04,29,07,26,215.30
2009,04,29,07,27,219.80
2009,04,29,07,28,225.30
2009,04,29,07,29,231.30
2009,04,29,07,30,240.10
2009,04,29,07,31,244.00
2009,04,29,07,32,256.60
2009,04,29,07,33,269.20
2009,04,29,07,34,274.30
2009,04,29,07,35,276.00
2009,04,29,07,36,275.10
2009,04,29,07,37,272.70
2009,04,29,07,38,269.90
2009,04,29,07,39,269.00
2009,04,29,07,40,251.60
2009,04,29,07,41,234.80
2009,04,29,07,42,189.50
2009,04,29,07,43,210.90
2009,04,29,07,44,236.80
2009,04,29,07,45,232.00
2009,04,29,07,46,229.30
2009,04,29,07,47,220.00
2009,04,29,07,48,212.90
2009,04,29,07,49,204.90
2009,04,29,07,50,202.30
2009,04,29,07,51,202.00
2009,04,29,07,52,202.00
2009,04,29,07,53,202.00
2009,04,29,07,54,202.00
2009,04,29,07,55,202.00
2009,04,29,07,56,202.00
2009,04,29,07,57,202.00
2009,04,29,07,58,202.00
2009,04,29,07,59,199.00
2009,04,29,08,00,192.00
2009,04,29,08,01,188.40
2009,04,29,08,02,186.50
2009,04,29,08,03,185.20
2009,04,29,08,04,178.30
2009,04,29,08,05,176.00
2009,04,29,08,06,176.00
2009,04,29,08,07,178.20
2009,04,29,08,08,174.50
2009,04,29,08,09,174.30
2009,04,29,08,10,176.00
2009,04,29,08,11,178.40
2009,04,29,08,12,183.50
2009,04,29,08,13,183.40
2009,04,29,08,14,184.90
2009,04,29,08,15,186.30
2009,04,29,08,16,195.30
2009,04,29,08,17,202.20
2009,04,29,08,18,209.20
2009,04,29,08,19,209.40
2009,04,29,08,20,204.00
2009,04,29,08,21,210.70
2009,04,29,08,22,222.90
2009,04,29,08,23,234.60
2009,04,29,08,24,237.00
2009,04,29,08,25,267.80
2009,04,29,08,26,316.70
2009,04,29,08,27,332.20
2009,04,29,08,28,345.20
2009,04,29,08,29,365.00
2009,04,29,08,30,385.80
2009,04,29,08,31,390.00
2009,04,29,08,32,417.40
2009,04,29,08,33,426.50
2009,04,29,08,34,437.90
2009,04,29,08,35,443.20
2009,04,29,08,36,445.70
2009,04,29,08,37,449.60
2009,04,29,08,38,450.20
2009,04,29,08,39,452.00
2009,04,29,08,40,452.00
2009,04,29,08,41,452.00
2009,04,29,08,42,452.00
2009,04,29,08,43,453.60
2009,04,29,08,44,454.00
2009,04,29,08,45,454.00
2009,04,29,08,46,454.00
2009,04,29,08,47,454.00
2009,04,29,08,48,454.00
2009,04,29,08,49,452.10
2009,04,29,08,50,453.90
2009,04,29,08,51,453.40
2009,04,29,08,52,452.00
2009,04,29,08,53,452.00
2009,04,29,08,54,453.60
2009,04,29,08,55,452.30
2009,04,29,08,56,455.00
2009,04,29,08,57,455.00
2009,04,29,08,58,455.00
2009,04,29,08,59,456.30
2009,04,29,09,00,457.00
2009,04,29,09,01,462.00
2009,04,29,09,02,462.70
2009,04,29,09,03,467.00
2009,04,29,09,04,470.00
2009,04,29,09,05,471.00
2009,04,29,09,06,475.20
2009,04,29,09,07,476.20
2009,04,29,09,08,480.60
2009,04,29,09,09,484.50
2009,04,29,09,10,487.00
2009,04,29,09,11,489.10
2009,04,29,09,12,491.50
2009,04,29,09,13,494.10
2009,04,29,09,14,497.00
2009,04,29,09,15,499.40
2009,04,29,09,16,504.60
2009,04,29,09,17,508.90
2009,04,29,09,18,511.80
2009,04,29,09,19,511.20
2009,04,29,09,20,504.00
2009,04,29,09,21,504.00
2009,04,29,09,22,513.60
2009,04,29,09,23,520.00
2009,04,29,09,24,520.00
2009,04,29,09,25,521.00
2009,04,29,09,26,531.50
2009,04,29,09,27,533.00
2009,04,29,09,28,537.30
2009,04,29,09,29,540.80
2009,04,29,09,30,542.90
2009,04,29,09,31,547.00
2009,04,29,09,32,547.30
2009,04,29,09,33,548.90
2009,04,29,09,34,552.10
2009,04,29,09,35,554.00
2009,04,29,09,36,554.80
2009,04,29,09,37,559.30
2009,04,29,09,38,561.60
2009,04,29,09,39,563.50
2009,04,29,09,40,560.80
2009,04,29,09,41,561.80
2009,04,29,09,42,563.00
2009,04,29,09,43,570.50
2009,04,29,09,44,573.00
2009,04,29,09,45,573.00
2009,04,29,09,46,573.00
2009,04,29,09,47,576.80
2009,04,29,09,48,578.20
2009,04,29,09,49,584.00
2009,04,29,09,50,585.00
2009,04,29,09,51,587.00
2009,04,29,09,52,590.50
2009,04,29,09,53,593.70
2009,04,29,09,54,598.30
2009,04,29,09,55,602.00
2009,04,29,09,56,607.20
2009,04,29,09,57,610.00
2009,04,29,09,58,593.50
2009,04,29,09,59,591.00
2009,04,29,10,00,597.50
2009,04,29,10,01,600.60
2009,04,29,10,02,610.00
2009,04,29,10,03,613.00
2009,04,29,10,04,617.50
2009,04,29,10,05,621.30
2009,04,29,10,06,626.00
2009,04,29,10,07,626.00
2009,04,29,10,08,626.00
2009,04,29,10,09,626.00
2009,04,29,10,10,633.20
2009,04,29,10,11,635.00
2009,04,29,10,12,635.00
2009,04,29,10,13,637.00
2009,04,29,10,14,642.50
2009,04,29,10,15,643.00
2009,04,29,10,16,646.10
2009,04,29,10,17,647.00
2009,04,29,10,18,652.30
2009,04,29,10,19,654.00
2009,04,29,10,20,654.00
2009,04,29,10,21,654.00
2009,04,29,10,22,654.00
2009,04,29,10,23,662.50
2009,04,29,10,24,666.00
2009,04,29,10,25,667.30
2009,04,29,10,26,671.40
2009,04,29,10,27,674.40
2009,04,29,10,28,675.00
2009,04,29,10,29,675.00
2009,04,29,10,30,676.00
2009,04,29,10,31,680.00
2009,04,29,10,32,681.10
2009,04,29,10,33,683.20
2009,04,29,10,34,684.00
2009,04,29,10,35,689.00
2009,04,29,10,36,690.20
2009,04,29,10,37,695.60
2009,04,29,10,38,699.10
2009,04,29,10,39,701.80
2009,04,29,10,40,704.80
2009,04,29,10,41,705.20
2009,04,29,10,42,708.00
2009,04,29,10,43,709.80
2009,04,29,10,44,713.10
2009,04,29,10,45,716.20
2009,04,29,10,46,717.00
2009,04,29,10,47,719.20
2009,04,29,10,48,721.00
2009,04,29,10,49,721.00
2009,04,29,10,50,721.60
2009,04,29,10,51,722.00
2009,04,29,10,52,734.30
2009,04,29,10,53,735.00
2009,04,29,10,54,735.00
2009,04,29,10,55,705.00
2009,04,29,10,56,729.00
2009,04,29,10,57,753.80
2009,04,29,10,58,747.20
2009,04,29,10,59,742.30
2009,04,29,11,00,745.00
2009,04,29,11,01,747.00
2009,04,29,11,02,748.40
2009,04,29,11,03,750.60
2009,04,29,11,04,751.00
2009,04,29,11,05,751.50
2009,04,29,11,06,754.70
2009,04,29,11,07,756.90
2009,04,29,11,08,758.70
2009,04,29,11,09,759.00
2009,04,29,11,10,754.80
2009,04,29,11,11,736.60
2009,04,29,11,12,750.90
2009,04,29,11,13,744.00
2009,04,29,11,14,744.00
2009,04,29,11,15,744.00
2009,04,29,11,16,772.00
2009,04,29,11,17,772.00
2009,04,29,11,18,772.40
2009,04,29,11,19,775.20
2009,04,29,11,20,778.40
2009,04,29,11,21,779.90
2009,04,29,11,22,780.30
2009,04,29,11,23,784.40
2009,04,29,11,24,786.70
2009,04,29,11,25,788.00
2009,04,29,11,26,788.70
2009,04,29,11,27,790.80
2009,04,29,11,28,791.50
2009,04,29,11,29,796.60
2009,04,29,11,30,798.90
2009,04,29,11,31,800.00
2009,04,29,11,32,803.80
2009,04,29,11,33,806.90
2009,04,29,11,34,807.00
2009,04,29,11,35,807.00
2009,04,29,11,36,810.80
2009,04,29,11,37,817.80
2009,04,29,11,38,819.00
2009,04,29,11,39,819.00
2009,04,29,11,40,823.50
2009,04,29,11,41,827.70
2009,04,29,11,42,831.90
2009,04,29,11,43,841.70
2009,04,29,11,44,846.00
2009,04,29,11,45,846.00
2009,04,29,11,46,870.80
2009,04,29,11,47,874.00
2009,04,29,11,48,874.00
2009,04,29,11,49,878.70
2009,04,29,11,50,887.10
2009,04,29,11,51,886.10
2009,04,29,11,52,888.00
2009,04,29,11,53,898.80
2009,04,29,11,54,919.00
2009,04,29,11,55,919.00
2009,04,29,11,56,919.00
2009,04,29,11,57,919.00
2009,04,29,11,58,933.40
2009,04,29,11,59,984.00
2009,04,29,12,00,984.00
2009,04,29,12,01,984.00
2009,04,29,12,02,984.00
2009,04,29,12,03,988.60
2009,04,29,12,04,1053.30
2009,04,29,12,05,1031.30
2009,04,29,12,06,1096.80
2009,04,29,12,07,1098.20
2009,04,29,12,08,1111.00
2009,04,29,12,09,1089.30
2009,04,29,12,10,849.00
2009,04,29,12,11,762.20
2009,04,29,12,12,656.00
2009,04,29,12,13,550.30
2009,04,29,12,14,507.80
2009,04,29,12,15,469.30
2009,04,29,12,16,443.10
2009,04,29,12,17,436.00
2009,04,29,12,18,436.00
2009,04,29,12,19,451.20
2009,04,29,12,20,476.90
2009,04,29,12,21,455.00
2009,04,29,12,22,452.90
2009,04,29,12,23,449.70
2009,04,29,12,24,458.50
2009,04,29,12,25,469.50
2009,04,29,12,26,465.20
2009,04,29,12,27,466.70
2009,04,29,12,28,461.60
2009,04,29,12,29,460.00
2009,04,29,12,30,456.30
2009,04,29,12,31,455.00
2009,04,29,12,32,451.70
2009,04,29,12,33,445.80
2009,04,29,12,34,444.20
2009,04,29,12,35,443.00
2009,04,29,12,36,443.00
2009,04,29,12,37,444.80
2009,04,29,12,38,446.20
2009,04,29,12,39,450.00
2009,04,29,12,40,450.00
2009,04,29,12,41,460.60
2009,04,29,12,42,469.00
2009,04,29,12,43,481.50
2009,04,29,12,44,490.60
2009,04,29,12,45,499.20
2009,04,29,12,46,517.30
2009,04,29,12,47,551.10
2009,04,29,12,48,544.50
2009,04,29,12,49,546.30
2009,04,29,12,50,538.80
2009,04,29,12,51,528.20
2009,04,29,12,52,558.80
2009,04,29,12,53,638.00
2009,04,29,12,54,677.00
2009,04,29,12,55,677.00
2009,04,29,12,56,897.40
2009,04,29,12,57,907.00
2009,04,29,12,58,907.00
2009,04,29,12,59,907.00
2009,04,29,13,00,657.30
2009,04,29,13,01,548.00
2009,04,29,13,02,548.00
2009,04,29,13,03,548.00
2009,04,29,13,04,539.90
2009,04,29,13,05,531.00
2009,04,29,13,06,531.00
2009,04,29,13,07,707.00
2009,04,29,13,08,707.00
2009,04,29,13,09,707.00
2009,04,29,13,10,707.00
2009,04,29,13,11,1035.30
2009,04,29,13,12,1143.20
2009,04,29,13,13,1188.90
2009,04,29,13,14,1223.00
2009,04,29,13,15,1221.20
2009,04,29,13,16,1218.00
2009,04,29,13,17,1218.00
2009,04,29,13,18,1143.20
2009,04,29,13,19,1130.00
2009,04,29,13,20,1130.00
2009,04,29,13,21,840.40
2009,04,29,13,22,399.40
2009,04,29,13,23,389.70
2009,04,29,13,24,387.00
2009,04,29,13,25,388.80
2009,04,29,13,26,407.00
2009,04,29,13,27,411.20
2009,04,29,13,28,416.00
2009,04,29,13,29,418.00
2009,04,29,13,30,411.70
2009,04,29,13,31,413.00
2009,04,29,13,32,414.00
2009,04,29,13,33,419.40
2009,04,29,13,34,422.00
2009,04,29,13,35,422.00
2009,04,29,13,36,463.80
2009,04,29,13,37,481.80
2009,04,29,13,38,517.70
2009,04,29,13,39,507.60
2009,04,29,13,40,504.50
2009,04,29,13,41,501.00
2009,04,29,13,42,537.30
2009,04,29,13,43,549.60
2009,04,29,13,44,577.00
2009,04,29,13,45,577.00
2009,04,29,13,46,577.00
2009,04,29,13,47,635.90
2009,04,29,13,48,622.00
2009,04,29,13,49,623.00
2009,04,29,13,50,611.30
2009,04,29,13,51,583.50
2009,04,29,13,52,646.90
2009,04,29,13,53,618.20
2009,04,29,13,54,601.20
2009,04,29,13,55,666.00
2009,04,29,13,56,610.80
2009,04,29,13,57,501.50
2009,04,29,13,58,472.20
2009,04,29,13,59,468.00
2009,04,29,14,00,459.20
2009,04,29,14,01,465.00
2009,04,29,14,02,486.10
2009,04,29,14,03,517.00
2009,04,29,14,04,517.00
2009,04,29,14,05,517.00
2009,04,29,14,06,601.50
2009,04,29,14,07,610.00
2009,04,29,14,08,613.20
2009,04,29,14,09,607.40
2009,04,29,14,10,621.20
2009,04,29,14,11,549.70
2009,04,29,14,12,571.00
2009,04,29,14,13,571.00
2009,04,29,14,14,576.80
2009,04,29,14,15,567.20
2009,04,29,14,16,536.30
2009,04,29,14,17,495.60
2009,04,29,14,18,488.50
2009,04,29,14,19,469.00
2009,04,29,14,20,481.00
2009,04,29,14,21,507.90
2009,04,29,14,22,517.00
2009,04,29,14,23,490.30
2009,04,29,14,24,443.00
2009,04,29,14,25,443.00
2009,04,29,14,26,421.70
2009,04,29,14,27,385.30
2009,04,29,14,28,370.90
2009,04,29,14,29,369.00
2009,04,29,14,30,346.00
2009,04,29,14,31,342.00
2009,04,29,14,32,334.00
2009,04,29,14,33,334.00
2009,04,29,14,34,334.00
2009,04,29,14,35,334.00
2009,04,29,14,36,334.00
2009,04,29,14,37,334.00
2009,04,29,14,38,332.90
2009,04,29,14,39,332.00
2009,04,29,14,40,333.70
2009,04,29,14,41,309.70
2009,04,29,14,42,297.10
2009,04,29,14,43,285.90
2009,04,29,14,44,273.50
2009,04,29,14,45,265.20
2009,04,29,14,46,264.90
2009,04,29,14,47,266.00
2009,04,29,14,48,260.80
2009,04,29,14,49,269.70
2009,04,29,14,50,307.70
2009,04,29,14,51,304.20
2009,04,29,14,52,292.00
2009,04,29,14,53,292.00
2009,04,29,14,54,292.00
2009,04,29,14,55,292.00
2009,04,29,14,56,292.00
2009,04,29,14,57,292.00
2009,04,29,14,58,292.00
2009,04,29,14,59,316.20
2009,04,29,15,00,510.00
2009,04,29,15,01,451.40
2009,04,29,15,02,411.00
2009,04,29,15,03,397.20
2009,04,29,15,04,353.30
2009,04,29,15,05,432.00
2009,04,29,15,06,432.00
2009,04,29,15,07,556.00
2009,04,29,15,08,680.00
2009,04,29,15,09,859.40
2009,04,29,15,10,893.00
2009,04,29,15,11,864.40
2009,04,29,15,12,854.00
2009,04,29,15,13,853.50
2009,04,29,15,14,853.00
2009,04,29,15,15,822.20
2009,04,29,15,16,815.60
2009,04,29,15,17,803.00
2009,04,29,15,18,778.00
2009,04,29,15,19,761.80
2009,04,29,15,20,762.10
2009,04,29,15,21,797.00
2009,04,29,15,22,800.10
2009,04,29,15,23,761.00
2009,04,29,15,24,741.60
2009,04,29,15,25,728.80
2009,04,29,15,26,750.80
2009,04,29,15,27,768.00
2009,04,29,15,28,758.10
2009,04,29,15,29,752.70
2009,04,29,15,30,763.80
2009,04,29,15,31,707.60
2009,04,29,15,32,671.00
2009,04,29,15,33,615.00
2009,04,29,15,34,608.00
2009,04,29,15,35,625.20
2009,04,29,15,36,685.20
2009,04,29,15,37,713.60
2009,04,29,15,38,744.00
2009,04,29,15,39,749.30
2009,04,29,15,40,666.70
2009,04,29,15,41,675.60
2009,04,29,15,42,698.30
2009,04,29,15,43,683.80
2009,04,29,15,44,665.00
2009,04,29,15,45,665.80
2009,04,29,15,46,668.00
2009,04,29,15,47,679.30
2009,04,29,15,48,669.50
2009,04,29,15,49,661.50
2009,04,29,15,50,653.40
2009,04,29,15,51,643.30
2009,04,29,15,52,630.50
2009,04,29,15,53,643.00
2009,04,29,15,54,660.80
2009,04,29,15,55,672.70
2009,04,29,15,56,671.00
2009,04,29,15,57,613.00
2009,04,29,15,58,618.70
2009,04,29,15,59,640.00
2009,04,29,16,00,628.90
2009,04,29,16,01,625.30
2009,04,29,16,02,632.40
2009,04,29,16,03,605.80
2009,04,29,16,04,617.10
2009,04,29,16,05,608.60
2009,04,29,16,06,619.30
2009,04,29,16,07,621.00
2009,04,29,16,08,634.40
2009,04,29,16,09,613.30
2009,04,29,16,10,632.50
2009,04,29,16,11,633.20
2009,04,29,16,12,603.00
2009,04,29,16,13,613.00
2009,04,29,16,14,617.00
2009,04,29,16,15,612.00
2009,04,29,16,16,606.20
2009,04,29,16,17,589.00
2009,04,29,16,18,589.00
2009,04,29,16,19,581.70
2009,04,29,16,20,485.20
2009,04,29,16,21,551.70
2009,04,29,16,22,540.80
2009,04,29,16,23,543.80
2009,04,29,16,24,541.80
2009,04,29,16,25,521.40
2009,04,29,16,26,555.00
2009,04,29,16,27,578.30
2009,04,29,16,28,561.40
2009,04,29,16,29,549.00
2009,04,29,16,30,554.40
2009,04,29,16,31,559.30
2009,04,29,16,32,584.00
2009,04,29,16,33,620.30
2009,04,29,16,34,629.70
2009,04,29,16,35,623.00
2009,04,29,16,36,610.00
2009,04,29,16,37,610.00
2009,04,29,16,38,607.20
2009,04,29,16,39,557.00
2009,04,29,16,40,557.00
2009,04,29,16,41,557.00
2009,04,29,16,42,552.10
2009,04,29,16,43,550.00
2009,04,29,16,44,541.20
2009,04,29,16,45,371.00
2009,04,29,16,46,374.30
2009,04,29,16,47,414.60
2009,04,29,16,48,406.50
2009,04,29,16,49,357.30
2009,04,29,16,50,351.50
2009,04,29,16,51,395.50
2009,04,29,16,52,424.10
2009,04,29,16,53,434.90
2009,04,29,16,54,430.50
2009,04,29,16,55,415.50
2009,04,29,16,56,415.80
2009,04,29,16,57,406.00
2009,04,29,16,58,390.40
2009,04,29,16,59,373.00
2009,04,29,17,00,349.30
2009,04,29,17,01,343.00
2009,04,29,17,02,348.70
2009,04,29,17,03,392.00
2009,04,29,17,04,414.70
2009,04,29,17,05,426.10
2009,04,29,17,06,431.80
2009,04,29,17,07,429.20
2009,04,29,17,08,422.60